• In Romania
  • List of Countries
  • For 7 days
  • Water Temperature
  • Satellite Maps
  • Weather Map
  • Weather Widgets
  • user-avatar
    Login

    Hourly Weather Bansko

    Today, 18 October, Wednesday

    Time Temperature Precipitation Wind Pressure Humidity
    00:00 +16°C° 0 mm 1 mps 726 mmHg 55%
    01:00 +16°C° 0 mm 1 mps 726 mmHg 56%
    02:00 +16°C° 0 mm 1 mps 726 mmHg 56%
    03:00 +15°C° 0 mm 1 mps 726 mmHg 57%
    04:00 +15°C° 0 mm 1 mps 726 mmHg 58%
    05:00 +15°C° 0 mm 1 mps 725 mmHg 58%
    06:00 +16°C° 0 mm 1 mps 725 mmHg 57%
    07:00 +16°C° 0 mm 1 mps 725 mmHg 56%
    08:00 +18°C° 0 mm 1 mps 725 mmHg 55%
    09:00 +21°C° 0 mm 1 mps 725 mmHg 48%
    10:00 +23°C° 0 mm 1 mps 725 mmHg 41%
    11:00 +25°C° 0 mm 1 mps 725 mmHg 33%
    12:00 +26°C° 0 mm 1 mps 725 mmHg 31%
    13:00 +27°C° 0 mm 2 mps 725 mmHg 29%
    14:00 +27°C° 0 mm 2 mps 724 mmHg 28%
    15:00 +26°C° 0 mm 1 mps 724 mmHg 32%
    16:00 +25°C° 0 mm 1 mps 723 mmHg 36%
    17:00 +23°C° 0 mm 1 mps 723 mmHg 40%
    18:00 +21°C° 0 mm 1 mps 723 mmHg 43%
    19:00 +20°C° 0 mm 1 mps 723 mmHg 46%
    20:00 +18°C° 0 mm 1 mps 723 mmHg 49%
    21:00 +16°C° 0 mm 1 mps 723 mmHg 51%
    22:00 +16°C° 0 mm 1 mps 723 mmHg 52%
    23:00 +16°C° 0 mm 1 mps 723 mmHg 53%

    Tomorrow, 19 October, Thursday

    Time Temperature Precipitation Wind Pressure Humidity
    00:00 +15°C° 0 mm 1 mps 723 mmHg 54%
    01:00 +15°C° 0 mm 1 mps 723 mmHg 55%
    02:00 +15°C° 0 mm 1 mps 722 mmHg 56%
    03:00 +14°C° 0 mm 1 mps 722 mmHg 56%
    04:00 +14°C° 0 mm 1 mps 722 mmHg 56%
    05:00 +14°C° 0 mm 1 mps 722 mmHg 57%
    06:00 +15°C° 0 mm 1 mps 722 mmHg 55%
    07:00 +15°C° 0 mm 1 mps 722 mmHg 54%
    08:00 +16°C° 0 mm 1 mps 722 mmHg 52%
    09:00 +20°C° 0 mm 1 mps 722 mmHg 45%
    10:00 +22°C° 0 mm 1 mps 722 mmHg 38%
    11:00 +25°C° 0 mm 1 mps 722 mmHg 30%
    12:00 +25°C° 0 mm 1 mps 722 mmHg 29%
    13:00 +26°C° 0 mm 1 mps 722 mmHg 27%
    14:00 +26°C° 0 mm 1 mps 722 mmHg 26%
    15:00 +25°C° 0 mm 1 mps 721 mmHg 30%
    16:00 +24°C° 0 mm 1 mps 721 mmHg 34%
    17:00 +22°C° 0 mm 1 mps 721 mmHg 37%
    18:00 +21°C° 0 mm 1 mps 721 mmHg 40%
    19:00 +19°C° 0 mm 1 mps 721 mmHg 43%
    20:00 +16°C° 0 mm 1 mps 721 mmHg 46%
    21:00 +16°C° 0 mm 1 mps 721 mmHg 47%
    22:00 +15°C° 0 mm 1 mps 721 mmHg 48%
    23:00 +15°C° 0 mm 1 mps 721 mmHg 49%

    Day after tomorrow, 20 October, Friday

    Time Temperature Precipitation Wind Pressure Humidity
    00:00 +14°C° 0 mm 1 mps 721 mmHg 49%
    01:00 +14°C° 0 mm 1 mps 721 mmHg 50%
    02:00 +14°C° 0 mm 1 mps 721 mmHg 51%
    03:00 +14°C° 0 mm 1 mps 721 mmHg 51%
    04:00 +13°C° 0 mm 1 mps 721 mmHg 51%
    05:00 +13°C° 0 mm 1 mps 721 mmHg 52%
    06:00 +14°C° 0 mm 1 mps 721 mmHg 51%
    07:00 +15°C° 0 mm 1 mps 721 mmHg 50%
    08:00 +16°C° 0 mm 1 mps 721 mmHg 49%
    09:00 +19°C° 0 mm 1 mps 722 mmHg 43%
    10:00 +22°C° 0 mm 1 mps 722 mmHg 36%
    11:00 +24°C° 0 mm 1 mps 722 mmHg 30%
    12:00 +25°C° 0 mm 1 mps 722 mmHg 29%
    13:00 +25°C° 0 mm 1 mps 722 mmHg 29%
    14:00 +26°C° 0 mm 1 mps 721 mmHg 28%
    15:00 +24°C° 0 mm 1 mps 721 mmHg 32%
    16:00 +23°C° 0 mm 1 mps 721 mmHg 37%
    17:00 +20°C° 0 mm 0 mps 721 mmHg 41%
    18:00 +18°C° 0 mm 0 mps 721 mmHg 44%
    19:00 +17°C° 0 mm 0 mps 721 mmHg 46%
    20:00 +15°C° 0 mm 0 mps 721 mmHg 49%
    21:00 +15°C° 0 mm 0 mps 722 mmHg 50%
    22:00 +14°C° 0 mm 0 mps 722 mmHg 51%
    23:00 +15°C° 0 mm 1 mps 722 mmHg 53%

    21 October, Saturday

    Time Temperature Precipitation Wind Pressure Humidity
    00:00 +15°C° 0 mm 1 mps 722 mmHg 54%
    01:00 +14°C° 0 mm 1 mps 722 mmHg 54%
    02:00 +14°C° 0 mm 1 mps 722 mmHg 55%
    03:00 +14°C° 0 mm 1 mps 722 mmHg 56%
    04:00 +14°C° 0 mm 1 mps 722 mmHg 57%
    05:00 +13°C° 0 mm 1 mps 722 mmHg 58%
    06:00 +14°C° 0 mm 1 mps 722 mmHg 58%
    07:00 +15°C° 0 mm 1 mps 722 mmHg 57%
    08:00 +16°C° 0 mm 1 mps 722 mmHg 57%
    09:00 +19°C° 0 mm 1 mps 723 mmHg 51%
    10:00 +21°C° 0 mm 1 mps 723 mmHg 45%
    11:00 +24°C° 0 mm 1 mps 723 mmHg 39%
    12:00 +24°C° 0 mm 1 mps 723 mmHg 37%
    13:00 +25°C° 0 mm 1 mps 722 mmHg 36%
    14:00 +25°C° 0 mm 1 mps 722 mmHg 35%
    15:00 +24°C° 0 mm 1 mps 722 mmHg 39%
    16:00 +23°C° 0 mm 1 mps 722 mmHg 43%
    17:00 +22°C° 0 mm 1 mps 721 mmHg 47%
    18:00 +20°C° 0 mm 1 mps 722 mmHg 51%
    19:00 +18°C° 0 mm 1 mps 722 mmHg 55%
    20:00 +16°C° 0 mm 1 mps 722 mmHg 59%
    21:00 +15°C° 0 mm 1 mps 722 mmHg 61%
    22:00 +15°C° 0 mm 1 mps 722 mmHg 63%
    23:00 +14°C° 0 mm 1 mps 722 mmHg 65%

    22 October, Sunday

    Time Temperature Precipitation Wind Pressure Humidity
    00:00 +14°C° 0 mm 1 mps 722 mmHg 66%
    01:00 +14°C° 0 mm 1 mps 722 mmHg 68%
    02:00 +14°C° 0 mm 1 mps 722 mmHg 69%
    03:00 +13°C° 0 mm 1 mps 722 mmHg 70%
    04:00 +13°C° 0 mm 1 mps 722 mmHg 71%
    05:00 +13°C° 0 mm 1 mps 722 mmHg 72%
    06:00 +14°C° 0 mm 1 mps 722 mmHg 70%
    07:00 +14°C° 0 mm 1 mps 722 mmHg 68%
    08:00 +15°C° 0 mm 1 mps 722 mmHg 66%
    09:00 +18°C° 0 mm 1 mps 722 mmHg 57%
    10:00 +20°C° 0 mm 1 mps 722 mmHg 49%
    11:00 +23°C° 0 mm 1 mps 723 mmHg 40%
    12:00 +23°C° 0 mm 1 mps 722 mmHg 38%
    13:00 +23°C° 0 mm 1 mps 722 mmHg 37%
    14:00 +24°C° 0 mm 1 mps 721 mmHg 35%
    15:00 +23°C° 0 mm 1 mps 721 mmHg 38%
    16:00 +22°C° 0 mm 1 mps 720 mmHg 42%
    17:00 +21°C° 0 mm 1 mps 720 mmHg 45%
    18:00 +19°C° 0 mm 1 mps 720 mmHg 50%
    19:00 +18°C° 0 mm 1 mps 720 mmHg 55%
    20:00 +15°C° 0 mm 2 mps 720 mmHg 59%
    21:00 +15°C° 0 mm 2 mps 720 mmHg 62%
    22:00 +14°C° 0 mm 2 mps 720 mmHg 64%
    23:00 +14°C° 0 mm 2 mps 720 mmHg 66%

    23 October, Monday

    Time Temperature Precipitation Wind Pressure Humidity
    00:00 +13°C° 0 mm 2 mps 719 mmHg 69%
    01:00 +13°C° 0 mm 2 mps 719 mmHg 71%
    02:00 +13°C° 0 mm 2 mps 719 mmHg 73%
    03:00 +13°C° 0 mm 1 mps 719 mmHg 74%
    04:00 +13°C° 0 mm 1 mps 718 mmHg 75%
    05:00 +13°C° 0 mm 1 mps 718 mmHg 76%
    06:00 +13°C° 0 mm 1 mps 718 mmHg 75%
    07:00 +14°C° 0 mm 1 mps 718 mmHg 74%
    08:00 +14°C° 0 mm 1 mps 718 mmHg 73%
    09:00 +16°C° 0 mm 2 mps 718 mmHg 66%
    10:00 +18°C° 0 mm 2 mps 719 mmHg 59%
    11:00 +19°C° 0 mm 2 mps 719 mmHg 52%
    12:00 +20°C° 0 mm 2 mps 718 mmHg 51%
    13:00 +20°C° 0 mm 2 mps 718 mmHg 49%
    14:00 +20°C° 0 mm 2 mps 718 mmHg 48%
    15:00 +20°C° 0 mm 2 mps 718 mmHg 52%
    16:00 +20°C° 0 mm 1 mps 718 mmHg 57%
    17:00 +19°C° 0 mm 1 mps 718 mmHg 61%
    18:00 +18°C° 0 mm 1 mps 719 mmHg 66%
    19:00 +16°C° 0 mm 1 mps 719 mmHg 71%
    20:00 +15°C° 0 mm 1 mps 719 mmHg 76%
    21:00 +14°C° 0 mm 1 mps 720 mmHg 78%
    22:00 +14°C° 0 mm 1 mps 720 mmHg 81%
    23:00 +13°C° 0 mm 1 mps 721 mmHg 84%
    Show more